Weather History for KMMU - May, 2014

Change the Weather History Date:

Sunday, May 25, 2014

  Actual Average Record
Temperature  
Mean Temperature 65 °F -  
Max Temperature 80 °F 74 °F 94 °F (1975)
Min Temperature 50 °F 50 °F 27 °F (1956)
Growing Degree Days 15 (Base 50)    
Moisture  
Dew Point 51 °F    
Average Humidity 76    
Maximum Humidity 100    
Minimum Humidity 24    
Precipitation  
Precipitation 0.01 in - - ()
Sea Level Pressure  
Sea Level Pressure 30.08 in    
Wind  
Wind Speed 1 mph (NW)    
Max Wind Speed 9 mph    
Max Gust Speed 15 mph    
Visibility 7 miles    
Events Fog    
Averages and records for this station are not official NWS values.
T = Trace of Precipitation, MM = Missing Value Source: NWS Daily Summary

Daily Weather History Graph

Daily Weather History Graph

Search for Another Location

Airport or City:

Trip Planner

Search our weather history database for the weather conditions in past years. The results will help you decide how hot, cold, wet, or windy it might be!

Date:

Astronomy

May. 25, 2014 Rise Set
Actual Time 5:32 AM EDT 8:17 PM EDT
Civil Twilight 5:00 AM EDT 8:49 PM EDT
Nautical Twilight 4:19 AM EDT 9:30 PM EDT
Astronomical Twilight 3:34 AM EDT 10:16 PM EDT
Moon 3:36 AM EDT (5/25) 5:14 PM EDT (5/25)
Length of Visible Light 15h 49m
Length of Day
14h 45m
Waning Crescent, 10% of the Moon is Illuminated
May 25
Waning Crescent
May 28
New
Jun 5
First Quarter
Jun 13
Full
Jun 19
Last Quarter

Hourly Weather History & Observations

Time (EDT) Temp. Dew Point Humidity Pressure Visibility Wind Dir Wind Speed Gust Speed Precip Events Conditions
12:15 AM 57.2 °F 53.6 °F 88% 30.09 in 0.2 mi Calm Calm - N/A Fog Fog
12:35 AM 55.4 °F 53.6 °F 94% 30.09 in 0.2 mi Calm Calm - N/A Fog Fog
12:55 AM 57.2 °F 53.6 °F 88% 30.09 in 0.2 mi Calm Calm - N/A Fog Fog
1:15 AM 55.4 °F 53.6 °F 94% 30.09 in 0.2 mi Calm Calm - N/A Fog Fog
1:35 AM 55.4 °F 53.6 °F 94% 30.09 in 0.2 mi Calm Calm - N/A Fog Fog
1:55 AM 55.4 °F 51.8 °F 88% 30.09 in 0.2 mi Calm Calm - N/A Fog Fog
2:15 AM 55.4 °F 51.8 °F 88% 30.08 in 0.2 mi Calm Calm - 0.01 in Fog Fog
2:35 AM 53.6 °F 51.8 °F 94% 30.08 in 0.2 mi Calm Calm - 0.01 in Fog Fog
2:55 AM 53.6 °F 51.8 °F 94% 30.08 in 0.2 mi Calm Calm - N/A Fog Fog
3:15 AM 53.6 °F 51.8 °F 94% 30.08 in 0.2 mi Calm Calm - N/A Fog Fog
3:35 AM 53.6 °F 50.0 °F 88% 30.08 in 0.2 mi Calm Calm - N/A Fog Fog
3:55 AM 51.8 °F 50.0 °F 94% 30.07 in 0.2 mi Calm Calm - N/A Fog Fog
4:15 AM 51.8 °F 50.0 °F 94% 30.07 in 0.2 mi Calm Calm - N/A Fog Fog
4:35 AM 51.8 °F 48.2 °F 88% 30.07 in 0.5 mi Calm Calm - N/A Fog Fog
4:55 AM 51.8 °F 48.2 °F 88% 30.07 in 0.8 mi Calm Calm - N/A   Overcast
5:15 AM 50.0 °F 48.2 °F 94% 30.08 in 0.5 mi Calm Calm - N/A Fog Fog
5:35 AM 50.0 °F 48.2 °F 94% 30.08 in 0.2 mi Calm Calm - N/A Fog Fog
5:55 AM 50.0 °F 48.2 °F 94% 30.09 in 0.5 mi Calm Calm - N/A Fog Fog
6:15 AM 50.0 °F 48.2 °F 94% 30.09 in 1.5 mi Calm Calm - N/A   Mostly Cloudy
6:35 AM 51.8 °F 50.0 °F 94% 30.10 in 10.0 mi Calm Calm - N/A   Clear
6:45 AM 51.8 °F 51.8 °F 100% 30.10 in 10.0 mi Calm Calm - N/A   Clear
7:45 AM 57.2 °F 57.2 °F 100% 30.11 in 10.0 mi Calm Calm - N/A   Clear
8:45 AM 62.6 °F 59.0 °F 88% 30.11 in 10.0 mi Calm Calm - N/A   Partly Cloudy
9:45 AM 69.8 °F 57.2 °F 64% 30.11 in 10.0 mi Calm Calm - N/A   Partly Cloudy
11:45 AM 75.2 °F 51.8 °F 44% 30.10 in 10.0 mi North 8.1 mph - N/A   Clear
12:45 PM 77.0 °F 50.0 °F 39% 30.09 in 10.0 mi WNW 3.5 mph - N/A   Partly Cloudy
1:45 PM 77.0 °F 44.6 °F 32% 30.07 in 15.0 mi NNW 6.9 mph - N/A   Mostly Cloudy
2:45 PM 80.6 °F 42.8 °F 26% 30.06 in 15.0 mi NW 6.9 mph 15.0 mph N/A   Mostly Cloudy
3:45 PM 80.6 °F 41.0 °F 24% 30.04 in 20.0 mi Calm Calm - N/A   Mostly Cloudy
4:45 PM 80.6 °F 41.0 °F 24% 30.03 in 20.0 mi NW 4.6 mph - N/A   Mostly Cloudy
5:45 PM 80.6 °F 42.8 °F 26% 30.02 in 20.0 mi Calm Calm - N/A   Mostly Cloudy
6:45 PM 78.8 °F 42.8 °F 28% 30.03 in 20.0 mi NW 9.2 mph - N/A   Mostly Cloudy
7:45 PM 73.4 °F 48.2 °F 41% 30.04 in 20.0 mi Calm Calm - N/A   Overcast
8:45 PM 64.4 °F 51.8 °F 64% 30.05 in 10.0 mi Calm Calm - N/A   Overcast
9:45 PM 60.8 °F 51.8 °F 72% 30.07 in 10.0 mi Calm Calm - N/A   Overcast
10:15 PM 60.8 °F 57.2 °F 88% 30.07 in 10.0 mi Calm Calm - N/A   Clear
10:35 PM 60.8 °F 55.4 °F 82% 30.07 in 10.0 mi Calm Calm - N/A   Clear
10:55 PM 59.0 °F 55.4 °F 88% 30.07 in 10.0 mi Calm Calm - N/A   Clear
11:15 PM 59.0 °F 53.6 °F 82% 30.07 in 10.0 mi Calm Calm - N/A   Clear
11:35 PM 59.0 °F 53.6 °F 82% 30.07 in 10.0 mi Calm Calm - N/A   Clear
11:55 PM 57.2 °F 53.6 °F 88% 30.07 in 10.0 mi Calm Calm - N/A   Clear